Wind_Speed
22 23 24 26 27 27 26 26 25 25 26 27 26 24 23 24 26 27 28 28 27 26 23 27 27 27 29 33 35 35 36 37 37 34 32 33 33 33 34 32 31 30 31
20 21 23 26 28 27 25 24 24 23 24 24 24 25 26 27 27 28 29 30 30 29 27 26 28 27 28 32 36 38 38 39 39 37 35 34 33 36 36 34 32 30 29
20 21 23 27 27 26 24 25 25 24 20 22 24 23 24 26 27 27 27 29 31 33 30 28 27 28 29 31 35 37 38 41 41 39 38 35 37 37 36 35 35 31 31
20 20 23 26 26 26 23 26 25 20 20 21 23 25 24 24 26 31 29 29 30 33 33 31 28 27 27 30 35 37 40 42 43 41 40 38 41 41 39 38 37 35 34
21 22 23 25 25 24 21 22 20 20 22 22 23 26 26 29 27 26 27 26 26 27 32 34 30 27 27 29 32 39 42 42 42 42 41 41 44 42 42 41 41 40 38
22 24 24 26 25 21 21 22 22 22 21 23 26 25 28 25 18 17 18 18 19 20 23 29 32 32 28 26 29 36 41 42 40 41 42 43 46 46 44 43 45 44 42
22 23 24 26 25 22 21 21 20 22 20 21 19 25 17 19 3 23 16 19 12 14 16 21 28 30 29 29 27 30 41 42 42 42 43 44 45 49 48 44 45 45 45
22 23 23 24 22 22 20 22 21 20 15 24 13 18 6 6 12 28 13 12 19 23 19 17 13 16 26 34 30 28 31 42 42 43 42 45 46 47 49 48 46 45 46
21 22 22 24 21 21 21 22 20 20 16 22 19 6 4 4 12 7 16 14 28 21 23 19 17 15 13 19 27 28 27 31 43 42 43 42 45 48 49 48 48 46 45
19 20 22 23 24 22 22 21 20 20 20 19 22 10 16 18 3 7 7 25 16 21 19 26 27 24 22 19 16 26 28 28 30 42 46 41 43 48 51 51 50 50 46
20 21 22 25 23 22 21 20 21 21 20 16 18 19 15 19 17 5 11 11 23 17 21 21 26 26 24 21 19 16 24 28 27 30 46 45 43 49 51 51 51 50 49
22 23 21 23 23 22 19 20 18 18 20 19 19 18 15 8 15 9 8 11 14 19 23 24 23 24 23 25 23 20 16 25 27 29 34 45 45 46 49 50 52 51 50
22 21 23 23 22 22 20 18 19 19 20 19 18 19 19 15 17 15 15 11 6 16 12 21 21 20 20 21 24 22 22 23 27 29 33 42 50 55 32 50 48 50 50
16 15 22 23 21 20 19 19 23 21 19 19 18 21 20 20 21 19 14 15 9 5 12 14 25 18 16 24 27 25 26 23 23 27 31 37 43 56 67 47 43 45 47
14 15 19 22 23 22 19 18 22 21 18 19 20 22 21 23 23 23 20 16 10 5 6 8 11 13 30 29 27 28 24 24 23 24 28 36 42 46 48 41 33 35 48
15 17 19 23 23 23 22 20 24 22 20 23 22 23 24 24 24 26 24 20 14 13 5 13 25 29 31 22 21 16 8 15 20 21 23 28 35 39 34 34 32 35 43
15 16 17 21 24 24 24 24 21 25 19 20 24 23 26 25 26 28 27 24 19 17 8 18 21 22 16 23 17 12 12 11 8 7 14 21 26 36 34 29 35 42 41
14 16 18 20 22 25 24 25 24 25 25 20 22 25 30 28 26 27 25 26 24 20 18 12 17 26 26 26 21 14 14 15 24 30 20 15 17 23 27 28 28 32 33
16 16 17 20 21 23 24 23 24 26 26 26 23 24 27 28 26 27 28 27 27 22 19 14 16 23 25 29 22 18 14 15 20 23 33 35 30 23 13 11 20 22 23
16 17 17 18 20 21 22 23 24 26 26 27 27 23 25 26 26 25 25 28 28 26 24 20 17 20 25 27 22 19 11 25 20 23 28 31 32 35 32 28 18 10 2
13 15 17 19 21 21 20 21 24 26 28 31 29 29 24 24 21 23 24 26 28 25 26 22 21 19 23 22 25 23 9 8 27 26 21 31 32 33 36 36 34 28 17
12 13 15 17 20 19 17 18 21 26 27 30 34 31 30 27 26 20 22 22 28 30 26 25 22 22 26 28 27 23 19 6 3 22 18 28 32 33 35 37 34 35 30
12 13 14 15 16 17 18 17 18 23 25 26 28 32 29 32 31 25 24 25 26 28 32 26 26 27 27 29 23 21 21 16 13 23 14 17 28 30 26 33 36 35 36
10 12 12 13 15 14 15 16 15 21 24 24 24 30 29 30 30 27 25 28 30 28 29 30 30 29 32 34 22 20 18 14 21 30 20 8 22 23 24 31 31 32 31
9 11 10 10 13 14 15 14 14 16 19 23 24 25 29 29 29 27 29 26 30 30 25 24 24 26 28 33 34 28 28 18 8 14 33 14 16 11 26 33 32 30 30
8 9 10 9 9 11 14 14 12 12 16 20 21 25 23 26 26 28 32 28 27 28 29 31 31 31 32 34 37 37 28 21 11 8 26 14 20 13 4 23 28 33 31
Wind_Direction
11 7 4 1 357 354 353 349 345 341 338 332 326 316 304 292 284 277 268 264 263 262 265 262 259 251 245 238 235 232 230 227 224 222 221 219 215 209 204 206 208 210 210
10 6 3 0 356 356 354 352 346 341 331 330 324 320 314 304 296 287 278 267 261 260 261 261 262 255 245 241 238 235 234 233 229 224 220 223 218 210 206 213 209 210 212
13 7 4 360 357 356 354 354 352 343 337 332 327 318 309 311 307 296 285 273 264 258 259 260 261 259 248 242 238 236 235 233 232 229 221 221 219 211 212 208 207 206 215
16 11 7 1 356 356 357 356 351 345 337 330 324 322 313 302 295 297 293 285 274 267 257 259 259 264 255 246 240 234 236 232 232 228 226 222 218 218 214 209 207 206 210
18 15 11 5 2 2 355 354 347 339 331 327 324 317 311 304 297 294 293 290 281 274 264 258 262 265 262 252 245 236 233 234 232 229 226 223 216 218 218 214 213 206 205
17 15 12 8 10 2 357 353 345 339 331 329 327 313 309 308 314 313 320 321 304 290 275 266 262 264 271 263 251 240 230 230 233 233 228 225 220 217 219 219 218 215 216
18 17 15 9 7 3 356 352 347 339 338 348 331 330 317 319 19 346 341 354 9 353 334 287 268 263 270 274 265 252 235 230 232 231 230 226 225 222 221 219 220 222 218
18 19 17 15 9 1 358 356 350 344 345 350 333 310 331 343 330 331 337 347 338 338 334 327 321 287 271 270 274 270 253 235 231 231 232 228 226 226 223 223 220 222 222
17 19 18 17 14 5 359 358 350 358 341 342 341 308 330 328 328 303 337 335 336 340 334 333 325 323 300 283 271 270 268 251 237 235 233 227 227 227 227 224 220 223 222
17 18 19 16 21 9 2 360 353 1 1 346 342 343 325 294 321 316 321 318 331 326 331 328 327 315 308 305 294 269 268 267 249 234 233 230 230 231 229 227 222 224 225
18 16 21 16 15 14 6 6 359 8 10 353 340 336 335 322 288 313 301 317 315 318 315 317 324 323 312 313 298 298 268 267 265 244 235 233 234 232 231 231 228 223 225
20 20 18 18 20 20 12 9 2 14 9 6 354 345 341 334 326 321 308 318 311 317 320 312 309 322 315 312 301 293 294 266 262 251 239 226 245 240 231 232 232 230 227
24 25 22 20 19 22 22 20 13 22 10 9 359 353 350 343 332 323 314 315 309 312 306 310 309 316 325 325 316 298 289 290 268 259 242 230 236 233 246 232 233 235 233
24 23 28 24 22 23 24 33 31 30 16 15 6 6 359 350 342 335 325 320 316 299 304 305 308 302 313 320 316 315 305 300 268 259 253 243 237 232 228 237 230 235 239
25 28 40 33 29 29 28 32 29 28 20 12 7 9 9 0 352 346 338 326 315 313 315 309 311 321 317 319 318 308 302 294 270 261 251 249 239 232 233 233 245 253 242
42 46 45 43 35 32 33 37 34 30 24 23 9 7 5 6 6 357 348 341 332 315 284 318 314 311 317 306 317 338 308 270 261 257 254 247 246 236 239 231 218 222 243
48 46 45 44 40 35 34 37 37 30 24 17 16 14 8 6 8 6 358 351 346 340 315 322 323 344 339 355 10 24 24 58 53 253 243 232 237 237 229 236 231 234 234
53 52 51 50 45 40 38 41 41 38 31 19 14 15 15 13 8 9 7 360 353 353 345 339 349 356 345 347 9 13 39 51 77 76 100 132 188 206 210 217 225 230 238
56 56 54 52 48 40 38 42 45 45 37 33 26 20 16 18 12 10 12 10 4 359 3 10 7 3 1 360 9 8 50 41 62 69 76 71 81 94 126 187 217 227 238
61 60 59 57 52 43 34 38 41 43 41 37 34 28 22 20 20 17 17 19 11 9 2 12 16 14 3 359 14 360 10 46 48 62 67 73 67 65 66 65 69 62 37
64 61 61 59 54 45 36 31 42 43 41 36 37 35 28 24 27 29 28 25 24 20 15 13 16 22 7 4 2 343 316 34 49 53 53 59 61 58 56 55 52 49 44
68 66 61 58 51 42 33 34 38 44 41 38 31 33 31 26 28 31 34 38 37 29 27 20 14 22 8 5 356 354 350 350 26 33 48 53 60 58 54 51 51 52 54
63 63 60 58 58 45 35 36 38 47 45 41 35 33 28 28 25 36 37 42 43 36 36 30 26 23 15 4 8 7 12 34 37 22 38 42 54 62 53 51 49 49 47
60 58 59 57 54 44 34 33 37 46 47 47 43 36 34 28 27 30 35 41 42 41 30 31 35 31 27 21 33 31 26 21 42 39 34 26 43 52 56 54 47 46 46
66 56 54 55 53 46 29 29 33 43 47 48 46 43 36 35 29 30 39 36 42 43 39 34 38 37 36 34 36 42 28 24 17 14 16 14 356 38 50 46 47 45 48
75 63 54 53 54 47 33 27 34 44 48 48 48 45 36 35 33 33 38 34 33 30 33 41 45 47 48 45 47 46 32 40 17 10 1 5 1 8 32 38 43 42 42
Height
802 800 798 795 792 787 784 780 778 775 773 771 769 766 763 761 759 757 754 755 755 755 755 757 757 759 762 764 766 769 772 775 780 784 788 790 793 796 800 804 808 812 817
803 800 798 795 792 788 784 779 777 774 771 768 766 764 760 757 754 751 749 747 748 748 749 749 750 752 755 759 760 763 766 770 773 778 782 786 789 792 796 799 803 808 812
804 802 798 794 791 787 783 779 776 772 768 766 763 760 757 753 749 746 743 741 739 740 742 743 743 745 747 750 754 756 760 764 768 773 776 780 785 788 792 794 799 803 808
804 801 797 794 791 787 782 778 775 771 768 764 759 756 752 749 746 741 737 735 733 733 733 736 736 738 739 741 745 748 750 756 761 765 770 774 778 782 786 791 794 798 802
805 801 797 793 789 785 782 778 776 773 767 762 757 754 748 741 738 736 731 729 727 727 727 728 730 731 732 733 736 739 741 747 751 755 761 767 771 775 780 784 789 792 795
805 801 797 793 787 785 783 780 777 773 767 762 754 749 742 736 734 732 729 724 723 722 723 722 723 724 725 726 727 730 734 739 744 747 752 758 764 769 773 778 782 787 791
804 801 797 793 789 786 783 781 778 773 765 761 753 747 738 732 733 731 728 724 722 721 719 717 717 719 719 720 720 722 727 730 734 738 743 749 755 760 765 771 776 780 785
805 801 798 794 790 787 784 782 779 774 767 764 762 753 741 733 732 728 727 724 723 720 717 716 714 713 714 714 714 715 718 723 726 729 733 738 744 751 756 763 768 774 778
806 802 799 796 791 787 785 782 780 774 771 767 767 764 751 744 739 726 725 723 721 719 716 714 711 710 709 709 709 709 710 713 718 721 724 729 734 740 747 753 759 764 770
807 803 799 795 791 788 785 783 781 777 773 771 767 764 762 757 745 730 725 723 721 718 715 713 710 708 706 705 703 704 705 707 708 713 715 721 726 732 738 743 748 754 761
807 803 798 795 792 788 786 785 782 778 775 774 772 766 759 754 748 744 726 720 718 717 714 710 708 706 703 701 700 699 701 700 701 704 709 713 719 725 730 734 739 743 750
806 802 802 797 793 790 788 786 784 780 777 775 774 770 764 759 754 750 738 728 719 711 711 708 705 703 700 698 696 696 695 695 697 698 694 701 710 714 721 726 731 735 740
805 805 803 799 795 792 790 788 785 780 779 777 775 771 765 761 757 751 744 732 724 714 709 706 702 700 697 696 694 692 691 690 689 692 695 694 700 709 701 718 724 728 732
810 807 804 802 798 794 792 789 785 781 781 779 776 771 765 761 757 752 747 740 727 718 710 704 701 697 696 694 692 689 685 683 682 682 683 685 689 695 699 701 716 721 724
812 809 805 803 801 797 795 792 787 784 783 780 776 772 766 761 757 752 747 743 737 725 716 704 702 698 695 693 689 685 681 676 675 675 677 679 684 691 699 706 703 710 721
814 812 807 803 803 801 797 794 789 786 784 781 778 773 768 763 757 752 747 742 737 732 721 711 706 702 695 689 686 681 675 671 670 671 672 674 677 683 691 696 697 700 710
816 813 810 807 806 804 801 796 792 789 787 783 780 775 771 765 758 753 749 743 737 731 723 713 707 700 695 689 683 680 677 672 668 667 669 669 672 676 680 685 691 698 700
817 815 812 810 809 807 804 799 796 793 789 787 782 778 773 767 763 758 752 746 739 732 725 715 709 703 698 694 687 684 682 679 673 671 667 667 667 671 676 681 687 690 694
819 817 814 812 811 810 807 804 800 796 793 789 785 782 776 772 767 762 755 748 742 736 729 722 715 710 703 697 689 690 683 684 679 676 673 674 670 670 672 675 678 680 685
821 819 817 816 813 812 810 807 803 799 796 792 788 784 781 777 771 766 759 753 747 739 733 726 719 714 711 703 696 696 697 687 684 679 679 676 677 676 675 677 676 678 680
822 821 820 818 815 814 813 809 805 802 798 795 791 786 783 780 775 770 764 759 753 747 742 735 729 721 719 710 705 704 701 701 691 687 689 680 680 682 682 681 679 682 679
824 823 821 819 818 817 816 812 808 804 801 797 794 790 786 782 777 773 768 763 758 753 748 744 740 730 726 719 716 710 704 697 695 699 688 691 686 689 691 688 688 685 682
826 824 823 822 820 820 818 814 811 808 804 801 799 794 789 785 780 774 770 764 759 758 754 752 746 740 735 730 723 720 713 710 707 703 699 700 693 695 702 696 688 690 690
826 825 825 824 822 821 820 817 814 811 808 805 802 799 794 790 785 779 774 769 764 761 759 756 753 749 744 736 727 721 720 718 710 710 707 708 702 705 705 697 700 699 699
827 826 826 825 824 823 822 819 816 814 812 809 806 802 799 795 791 785 779 775 770 767 765 762 759 755 750 743 735 730 726 722 722 721 717 710 715 710 703 704 705 704 701
828 828 828 827 826 825 823 822 819 817 815 812 810 807 804 801 797 791 785 781 777 775 771 765 761 757 753 748 742 739 739 734 734 729 728 725 719 713 712 715 711 708 706